EW0139 Weather Reports


time (UTC)temp
C
wind
direction
speed
KPH
gust
KPH
rain 1hr
cm
rain 24hr
cm
rain mn
cm
humidity
%
barometer
mb
20260831002255 21 247 19.3 27.4 0.00 0.08 0.08 39 1008.4
20260831000815 21 258 20.9 29.0 0.00 0.08 0.08 37 1008.3
20260830235315 21 219 24.1 30.6 0.00 0.08 0.08 37 1008.2
20260830233740 21 231 11.3 22.5 0.00 0.08 0.08 41 1009.1
20260830232246 21 239 16.1 37.0 0.00 0.08 0.08 39 1009.2
20260830230752 21 212 14.5 27.4 0.00 0.08 0.08 46 1009.2
20260830225313 21 236 14.5 20.9 0.00 0.08 0.08 50 1009.3
20260830223753 20 227 11.3 22.5 0.00 0.08 0.08 55 1009.3
20260830222320 19 221 20.9 25.7 0.00 0.08 0.08 55 1009.5
20260830220821 18 256 17.7 27.4 0.00 0.08 0.08 55 1009.8
20260830215305 18 263 17.7 20.9 0.00 0.08 0.08 56 1010.1
20260830213748 17 197 3.2 4.8 0.00 0.08 0.08 56 1008.9
20260830212248 18 197 0.0 16.1 0.00 0.08 0.08 56 1008.9
20260830210749 18 204 16.1 20.9 0.00 0.08 0.08 59 1009.7
20260830205254 18 202 14.5 27.4 0.00 0.08 0.08 59 1010.7
20260830203755 18 175 16.1 29.0 0.00 0.08 0.08 59 1010.6
20260830202240 18 228 11.3 30.6 0.00 0.08 0.08 61 1010.5
20260830200745 18 224 14.5 27.4 0.00 0.08 0.08 57 1009.9
20260830195306 19 226 25.7 32.2 0.00 0.08 0.08 56 1009.8
20260830193751 19 242 19.3 38.6 0.00 0.08 0.08 55 1009.7
20260830192254 20 289 11.3 20.9 0.00 0.08 0.08 49 1009.0
20260830190755 19 292 11.3 20.9 0.00 0.08 0.08 55 1008.5
20260830185321 19 304 22.5 30.6 0.00 0.08 0.08 58 1008.5
20260830183740 18 288 30.6 33.8 0.00 0.08 0.08 60 1009.1
20260830182244 18 267 19.3 33.8 0.00 0.08 0.08 59 1009.4
20260830180751 19 248 25.7 33.8 0.00 0.08 0.08 60 1009.5
20260830175250 18 278 19.3 40.2 0.00 0.08 0.08 59 1009.6
20260830173755 18 263 20.9 38.6 0.00 0.08 0.08 62 1009.8
20260830172254 18 261 16.1 29.0 0.00 0.08 0.08 62 1009.6
20260830170756 18 259 20.9 24.1 0.00 0.08 0.08 67 1009.6
20260830165258 18 279 20.9 32.2 0.00 0.08 0.08 62 1009.4
20260830163759 18 280 19.3 38.6 0.00 0.08 0.08 60 1009.2
20260830162240 18 277 30.6 40.2 0.00 0.08 0.08 58 1009.0
20260830160745 18 276 22.5 33.8 0.00 0.08 0.08 66 1008.9
20260830155307 18 269 20.9 33.8 0.00 0.08 0.08 71 1008.7
20260830153810 17 279 20.9 33.8 0.03 0.08 0.08 70 1008.5
20260830152254 17 293 29.0 29.0 0.03 0.08 0.08 74 1008.6
20260830150753 16 302 17.7 29.0 0.03 0.08 0.08 78 1008.3
20260830145315 16 284 20.9 25.7 0.03 0.08 0.08 81 1008.4
20260830143737 16 282 17.7 24.1 0.00 0.05 0.05 83 1008.4
20260830142241 16 260 16.1 20.9 0.00 0.05 0.05 83 1008.3
20260830140749 16 279 8.0 11.3 0.00 0.05 0.05 83 1008.1
20260830135249 16 265 6.4 9.7 0.00 0.05 0.05 82 1008.1
20260830133750 16 288 8.0 16.1 0.00 0.05 0.05 78 1008.1
20260830132254 16 299 0.0 6.4 0.00 0.05 0.05 80 1008.0
20260830130754 16 306 9.7 11.3 0.03 0.05 0.05 81 1008.1
20260830125239 16 312 6.4 16.1 0.03 0.05 0.05 81 1007.9
20260830123802 15 296 11.3 17.7 0.05 0.05 0.05 79 1007.8
20260830122244 15 290 20.9 27.4 0.05 0.05 0.05 78 1007.6
20260830120751 15 298 24.1 24.1 0.03 0.03 0.03 75 1007.8
20260830115252 15 298 16.1 35.4 0.03 0.03 0.03 75 1007.1
20260830113753 17 282 17.7 19.3 0.00 0.00 0.00 67 1007.6
20260830112258 17 271 9.7 17.7 0.00 0.00 0.00 60 1008.1
20260830110740 17 251 9.7 16.1 0.00 0.00 0.00 62 1007.9
20260830105307 17 220 17.7 20.9 0.00 0.00 0.00 61 1008.1
20260830103746 16 324 0.0 3.2 0.00 0.00 0.00 64 1007.5
20260830102313 16 324 0.0 8.0 0.00 0.00 0.00 63 1007.2
20260830100755 17 17 4.8 4.8 0.00 0.00 0.00 60 1007.1
20260830095254 18 67 0.0 1.6 0.00 0.00 0.00 59 1006.5
20260830093754 20 67 0.0 3.2 0.00 0.00 0.00 57 1006.4
20260830092259 20 67 3.2 4.8 0.00 0.00 0.00 54 1006.5
20260830090739 20 67 3.2 4.8 0.00 0.00 0.00 53 1006.7
20260830085248 20 67 0.0 4.8 0.00 0.00 0.00 54 1006.9
20260830083750 20 72 0.0 6.4 0.00 0.00 0.00 54 1007.1
20260830082251 20 75 1.6 6.4 0.00 0.00 0.00 53 1007.1
20260830080820 20 137 3.2 9.7 0.00 0.00 0.00 53 1007.0
20260830075259 20 151 6.4 8.0 0.00 0.00 0.00 51 1007.1
20260830073818 20 312 0.0 1.6 0.00 0.00 0.00 51 1007.1
20260830072243 21 312 0.0 1.6 0.00 0.00 0.00 50 1007.3
20260830070748 21 312 0.0 3.2 0.00 0.00 0.00 50 1007.3
20260830065253 21 312 0.0 0.0 0.00 0.00 0.00 49 1007.3
20260830063756 21 312 0.0 4.8 0.00 0.00 0.00 48 1007.3
20260830062256 22 301 4.8 16.1 0.00 0.00 0.00 47 1007.4
20260830060802 22 267 8.0 19.3 0.00 0.00 0.00 48 1007.3
20260830055301 20 245 14.5 14.5 0.00 0.00 0.00 51 1007.2
20260830053806 20 34 1.6 8.0 0.00 0.00 0.00 51 1006.8
20260830052250 20 34 0.0 1.6 0.00 0.00 0.00 51 1006.8
20260830050815 20 34 0.0 3.2 0.00 0.00 0.00 48 1006.8
20260830045255 20 35 0.0 4.8 0.00 0.00 0.00 52 1006.7
20260830043801 20 34 0.0 0.0 0.00 0.00 0.00 49 1006.9
20260830042305 20 34 0.0 1.6 0.00 0.00 0.00 47 1006.9
20260830040802 21 35 0.0 1.6 0.00 0.00 0.00 47 1007.1
20260830035308 21 34 3.2 4.8 0.00 0.00 0.00 47 1007.0
20260830033749 21 99 3.2 4.8 0.00 0.00 0.00 48 1007.0
20260830032254 22 99 0.0 4.8 0.00 0.00 0.00 45 1007.0
20260830030755 22 99 1.6 4.8 0.00 0.00 0.00 44 1007.0
20260830025317 24 99 1.6 6.4 0.00 0.00 0.00 42 1006.7
20260830023802 25 99 0.0 4.8 0.00 0.00 0.00 40 1006.6
20260830022244 25 99 6.4 9.7 0.00 0.00 0.00 39 1006.6
20260830020747 25 109 6.4 9.7 0.00 0.00 0.00 39 1006.6
20260830015252 26 84 4.8 11.3 0.00 0.00 0.00 38 1006.5
20260830013757 26 79 6.4 11.3 0.00 0.00 0.00 37 1006.5
20260830012241 26 88 8.0 17.7 0.00 0.00 0.00 36 1006.6
20260830010807 27 82 16.1 20.9 0.00 0.00 0.00 36 1006.5
20260830005245 27 95 16.1 25.7 0.00 0.00 0.00 34 1006.4
20260830003750 29 76 19.3 32.2 0.00 0.00 0.00 31 1006.4